| time (UTC) | temp F | wind direction | speed MPH | gust MPH | rain 1hr in | rain 24hr in | rain mn in | humidity % | barometer mb |
| 20260510194517 | 99 | 276 | 5.0 | 13.0 | 0.00 | 0.00 | 0.00 | 8 | 1008.6 |
| 20260510194239 | 98 | 202 | 4.0 | 12.0 | 0.00 | 0.00 | 0.00 | 8 | 1008.6 |
| 20260510193520 | 98 | 285 | 6.0 | 12.0 | 0.00 | 0.00 | 0.00 | 8 | 1008.7 |
| 20260510193026 | 97 | 231 | 3.0 | 9.0 | 0.00 | 0.00 | 0.00 | 9 | 1008.7 |
| 20260510192742 | 96 | 240 | 2.0 | 9.0 | 0.00 | 0.00 | 0.00 | 9 | 1008.8 |
| 20260510192247 | 95 | 305 | 4.0 | 10.0 | 0.00 | 0.00 | 0.00 | 10 | 1008.9 |
| 20260510191520 | 95 | 234 | 4.0 | 10.0 | 0.00 | 0.00 | 0.00 | 9 | 1008.9 |
| 20260510191016 | 97 | 271 | 5.0 | 9.0 | 0.00 | 0.00 | 0.00 | 9 | 1008.9 |
| 20260510190516 | 97 | 196 | 3.0 | 7.0 | 0.00 | 0.00 | 0.00 | 10 | 1009.0 |
| 20260510190016 | 97 | 202 | 5.0 | 7.0 | 0.00 | 0.00 | 0.00 | 9 | 1009.1 |
| 20260510185520 | 97 | 276 | 3.0 | 5.0 | 0.00 | 0.00 | 0.00 | 10 | 1009.1 |
| 20260510185019 | 96 | 223 | 1.0 | 6.0 | 0.00 | 0.00 | 0.00 | 10 | 1009.2 |
| 20260510184519 | 96 | 216 | 1.0 | 6.0 | 0.00 | 0.00 | 0.00 | 10 | 1009.2 |
| 20260510184238 | 96 | 202 | 2.0 | 5.0 | 0.00 | 0.00 | 0.00 | 9 | 1009.2 |
| 20260510183518 | 95 | 250 | 0.0 | 6.0 | 0.00 | 0.00 | 0.00 | 10 | 1009.4 |
| 20260510183018 | 95 | 285 | 3.0 | 9.0 | 0.00 | 0.00 | 0.00 | 9 | 1009.5 |
| 20260510182736 | 95 | 224 | 2.0 | 9.0 | 0.00 | 0.00 | 0.00 | 10 | 1009.4 |
| 20260510182234 | 95 | 300 | 1.0 | 3.0 | 0.00 | 0.00 | 0.00 | 9 | 1009.5 |
| 20260510181958 | 95 | 55 | 0.0 | 4.0 | 0.00 | 0.00 | 0.00 | 10 | 1009.6 |
| 20260510181018 | 94 | 313 | 1.0 | 4.0 | 0.00 | 0.00 | 0.00 | 10 | 1009.6 |
| 20260510180518 | 94 | 247 | 2.0 | 4.0 | 0.00 | 0.00 | 0.00 | 10 | 1009.6 |
| 20260510180017 | 94 | 220 | 1.0 | 5.0 | 0.00 | 0.00 | 0.00 | 11 | 1009.6 |
| 20260510175518 | 94 | 134 | 0.0 | 5.0 | 0.00 | 0.00 | 0.00 | 11 | 1009.6 |
| 20260510175018 | 94 | 199 | 0.0 | 5.0 | 0.00 | 0.00 | 0.00 | 10 | 1009.7 |
| 20260510174740 | 93 | 286 | 2.0 | 5.0 | 0.00 | 0.00 | 0.00 | 11 | 1009.6 |
| 20260510174017 | 92 | 137 | 1.0 | 6.0 | 0.00 | 0.00 | 0.00 | 11 | 1009.7 |
| 20260510173517 | 92 | 331 | 1.0 | 6.0 | 0.00 | 0.00 | 0.00 | 11 | 1009.7 |
| 20260510173017 | 93 | 275 | 2.0 | 4.0 | 0.00 | 0.00 | 0.00 | 10 | 1009.6 |
| 20260510172517 | 92 | 292 | 0.0 | 3.0 | 0.00 | 0.00 | 0.00 | 12 | 1009.7 |
| 20260510172017 | 92 | 333 | 0.0 | 3.0 | 0.00 | 0.00 | 0.00 | 11 | 1009.7 |
| 20260510171518 | 92 | 275 | 1.0 | 3.0 | 0.00 | 0.00 | 0.00 | 12 | 1009.7 |
| 20260510171246 | 92 | 200 | 0.0 | 4.0 | 0.00 | 0.00 | 0.00 | 11 | 1009.7 |
| 20260510170517 | 92 | 133 | 0.0 | 5.0 | 0.00 | 0.00 | 0.00 | 12 | 1009.8 |
| 20260510170017 | 92 | 106 | 1.0 | 5.0 | 0.00 | 0.00 | 0.00 | 12 | 1009.7 |
| 20260510165516 | 92 | 189 | 2.0 | 3.0 | 0.00 | 0.00 | 0.00 | 11 | 1009.7 |
| 20260510165013 | 92 | 162 | 0.0 | 3.0 | 0.00 | 0.00 | 0.00 | 12 | 1009.7 |
| 20260510164516 | 91 | 230 | 2.0 | 4.0 | 0.00 | 0.00 | 0.00 | 11 | 1009.7 |
| 20260510164240 | 90 | 166 | 2.0 | 5.0 | 0.00 | 0.00 | 0.00 | 12 | 1009.7 |
| 20260510163516 | 90 | 203 | 2.0 | 5.0 | 0.00 | 0.00 | 0.00 | 12 | 1009.6 |
| 20260510163242 | 91 | 252 | 0.0 | 4.0 | 0.00 | 0.00 | 0.00 | 12 | 1009.6 |
| 20260510162516 | 90 | 152 | 2.0 | 4.0 | 0.00 | 0.00 | 0.00 | 12 | 1009.6 |
| 20260510162016 | 89 | 195 | 0.0 | 2.0 | 0.00 | 0.00 | 0.00 | 13 | 1009.6 |
| 20260510161512 | 89 | 94 | 0.0 | 3.0 | 0.00 | 0.00 | 0.00 | 13 | 1009.6 |
| 20260510161011 | 89 | 180 | 0.0 | 3.0 | 0.00 | 0.00 | 0.00 | 13 | 1009.6 |
| 20260510160512 | 89 | 168 | 1.0 | 3.0 | 0.00 | 0.00 | 0.00 | 13 | 1009.6 |
| 20260510160015 | 89 | 164 | 0.0 | 2.0 | 0.00 | 0.00 | 0.00 | 13 | 1009.6 |
| 20260510155515 | 88 | 250 | 0.0 | 3.0 | 0.00 | 0.00 | 0.00 | 13 | 1009.6 |
| 20260510155015 | 88 | 240 | 1.0 | 3.0 | 0.00 | 0.00 | 0.00 | 13 | 1009.6 |
| 20260510154516 | 88 | 202 | 0.0 | 3.0 | 0.00 | 0.00 | 0.00 | 14 | 1009.5 |
| 20260510154015 | 87 | 165 | 0.0 | 4.0 | 0.00 | 0.00 | 0.00 | 15 | 1009.5 |
| 20260510153515 | 87 | 240 | 1.0 | 4.0 | 0.00 | 0.00 | 0.00 | 15 | 1009.5 |
| 20260510153015 | 87 | 219 | 3.0 | 4.0 | 0.00 | 0.00 | 0.00 | 14 | 1009.5 |
| 20260510152515 | 87 | 175 | 1.0 | 3.0 | 0.00 | 0.00 | 0.00 | 15 | 1009.5 |
| 20260510152011 | 87 | 158 | 0.0 | 2.0 | 0.00 | 0.00 | 0.00 | 14 | 1009.5 |
| 20260510151514 | 87 | 154 | 0.0 | 2.0 | 0.00 | 0.00 | 0.00 | 13 | 1009.5 |
| 20260510151235 | 86 | 212 | 0.0 | 2.0 | 0.00 | 0.00 | 0.00 | 14 | 1009.4 |
| 20260510150514 | 85 | 158 | 0.0 | 1.0 | 0.00 | 0.00 | 0.00 | 14 | 1009.4 |
| 20260510150013 | 86 | 118 | 0.0 | 0.0 | 0.00 | 0.00 | 0.00 | 16 | 1009.5 |
| 20260510145514 | 84 | 11 | 0.0 | 0.0 | 0.00 | 0.00 | 0.00 | 20 | 1009.5 |
| 20260510145013 | 83 | 11 | 0.0 | 0.0 | 0.00 | 0.00 | 0.00 | 23 | 1009.4 |
| 20260510144736 | 81 | 11 | 0.0 | 0.0 | 0.00 | 0.00 | 0.00 | 25 | 1009.2 |
| 20260510144010 | 80 | 11 | 0.0 | 0.0 | 0.00 | 0.00 | 0.00 | 29 | 1009.4 |
| 20260510143514 | 79 | 11 | 0.0 | 0.0 | 0.00 | 0.00 | 0.00 | 32 | 1009.4 |
| 20260510143014 | 80 | 13 | 0.0 | 0.0 | 0.00 | 0.00 | 0.00 | 36 | 1009.2 |
| 20260510142514 | 81 | 13 | 0.0 | 0.0 | 0.00 | 0.00 | 0.00 | 30 | 1009.2 |
| 20260510142013 | 80 | 13 | 0.0 | 0.0 | 0.00 | 0.00 | 0.00 | 25 | 1009.2 |
| 20260510141514 | 78 | 13 | 0.0 | 0.0 | 0.00 | 0.00 | 0.00 | 29 | 1009.2 |
| 20260510141012 | 76 | 13 | 0.0 | 0.0 | 0.00 | 0.00 | 0.00 | 36 | 1009.2 |
| 20260510140512 | 74 | 13 | 0.0 | 0.0 | 0.00 | 0.00 | 0.00 | 36 | 1009.1 |
| 20260510140012 | 74 | 42 | 0.0 | 0.0 | 0.00 | 0.00 | 0.00 | 39 | 1009.1 |
| 20260510135742 | 74 | 42 | 0.0 | 0.0 | 0.00 | 0.00 | 0.00 | 36 | 1009.0 |
| 20260510135013 | 73 | 42 | 0.0 | 0.0 | 0.00 | 0.00 | 0.00 | 36 | 1009.0 |
| 20260510134734 | 73 | 42 | 0.0 | 0.0 | 0.00 | 0.00 | 0.00 | 31 | 1009.1 |
| 20260510134011 | 72 | 42 | 0.0 | 0.0 | 0.00 | 0.00 | 0.00 | 32 | 1009.0 |
| 20260510133735 | 73 | 42 | 0.0 | 0.0 | 0.00 | 0.00 | 0.00 | 35 | 1009.0 |
| 20260510133240 | 73 | 44 | 0.0 | 1.0 | 0.00 | 0.00 | 0.00 | 25 | 1008.8 |
| 20260510132512 | 73 | 48 | 0.0 | 4.0 | 0.00 | 0.00 | 0.00 | 27 | 1008.8 |
| 20260510132011 | 72 | 41 | 2.0 | 4.0 | 0.00 | 0.00 | 0.00 | 26 | 1008.7 |
| 20260510131508 | 71 | 41 | 2.0 | 4.0 | 0.00 | 0.00 | 0.00 | 26 | 1008.7 |
| 20260510131231 | 69 | 39 | 3.0 | 4.0 | 0.00 | 0.00 | 0.00 | 28 | 1008.6 |
| 20260510130511 | 68 | 34 | 0.0 | 1.0 | 0.00 | 0.00 | 0.00 | 30 | 1008.6 |
| 20260510130012 | 67 | 30 | 0.0 | 1.0 | 0.00 | 0.00 | 0.00 | 32 | 1008.6 |
| 20260510125511 | 68 | 31 | 0.0 | 2.0 | 0.00 | 0.00 | 0.00 | 30 | 1008.6 |
| 20260510125011 | 68 | 21 | 0.0 | 3.0 | 0.00 | 0.00 | 0.00 | 29 | 1008.5 |
| 20260510124511 | 68 | 39 | 1.0 | 3.0 | 0.00 | 0.00 | 0.00 | 28 | 1008.5 |
| 20260510124011 | 67 | 49 | 0.0 | 1.0 | 0.00 | 0.00 | 0.00 | 29 | 1008.4 |
| 20260510123510 | 66 | 45 | 0.0 | 0.0 | 0.00 | 0.00 | 0.00 | 29 | 1008.4 |
| 20260510123327 | 66 | 49 | 0.0 | 0.0 | 0.00 | 0.00 | 0.00 | 29 | 1008.3 |
| 20260510123218 | 67 | 49 | 0.0 | 0.0 | 0.00 | 0.00 | 0.00 | 29 | 1008.3 |
| 20260510122010 | 66 | 49 | 0.0 | 1.0 | 0.00 | 0.00 | 0.00 | 30 | 1008.3 |
| 20260510121510 | 67 | 49 | 0.0 | 1.0 | 0.00 | 0.00 | 0.00 | 29 | 1008.3 |
| 20260510121010 | 66 | 72 | 0.0 | 0.0 | 0.00 | 0.00 | 0.00 | 30 | 1008.4 |
| 20260510120510 | 66 | 69 | 0.0 | 0.0 | 0.00 | 0.00 | 0.00 | 32 | 1008.2 |
| 20260510120228 | 66 | 69 | 0.0 | 0.0 | 0.00 | 0.00 | 0.00 | 32 | 1008.4 |
| 20260510115509 | 66 | 68 | 0.0 | 0.0 | 0.00 | 0.00 | 0.00 | 29 | 1008.2 |
| 20260510115232 | 66 | 69 | 0.0 | 0.0 | 0.00 | 0.00 | 0.00 | 28 | 1008.1 |
| 20260510114510 | 67 | 69 | 0.0 | 0.0 | 0.00 | 0.00 | 0.00 | 29 | 1007.9 |
| 20260510114010 | 67 | 338 | 0.0 | 0.0 | 0.00 | 0.00 | 0.00 | 31 | 1007.8 |
| 20260510113510 | 67 | 286 | 0.0 | 0.0 | 0.00 | 0.00 | 0.00 | 27 | 1007.8 |
| 20260510113009 | 68 | 286 | 0.0 | 0.0 | 0.00 | 0.00 | 0.00 | 30 | 1007.6 |
| 20260510112509 | 69 | 286 | 0.0 | 0.0 | 0.00 | 0.00 | 0.00 | 30 | 1007.7 |
| 20260510112009 | 69 | 351 | 0.0 | 0.0 | 0.00 | 0.00 | 0.00 | 27 | 1007.6 |
| 20260510111508 | 69 | 351 | 0.0 | 0.0 | 0.00 | 0.00 | 0.00 | 28 | 1007.7 |
| 20260510111005 | 71 | 252 | 0.0 | 4.0 | 0.00 | 0.00 | 0.00 | 27 | 1007.7 |
| 20260510110506 | 72 | 37 | 2.0 | 4.0 | 0.00 | 0.00 | 0.00 | 23 | 1007.6 |
| 20260510110005 | 71 | 18 | 0.0 | 3.0 | 0.00 | 0.00 | 0.00 | 23 | 1007.6 |
| 20260510105508 | 70 | 35 | 2.0 | 3.0 | 0.00 | 0.00 | 0.00 | 24 | 1007.6 |
| 20260510105009 | 69 | 292 | 0.0 | 1.0 | 0.00 | 0.00 | 0.00 | 30 | 1007.6 |
| 20260510104508 | 69 | 28 | 0.0 | 3.0 | 0.00 | 0.00 | 0.00 | 29 | 1007.6 |
| 20260510104008 | 69 | 1 | 1.0 | 3.0 | 0.00 | 0.00 | 0.00 | 28 | 1007.7 |
| 20260510103507 | 69 | 347 | 0.0 | 3.0 | 0.00 | 0.00 | 0.00 | 26 | 1007.7 |
| 20260510103008 | 70 | 347 | 0.0 | 0.0 | 0.00 | 0.00 | 0.00 | 28 | 1007.7 |
| 20260510102507 | 69 | 340 | 0.0 | 0.0 | 0.00 | 0.00 | 0.00 | 28 | 1007.7 |
| 20260510102007 | 70 | 343 | 0.0 | 1.0 | 0.00 | 0.00 | 0.00 | 30 | 1007.7 |
| 20260510101507 | 70 | 343 | 0.0 | 1.0 | 0.00 | 0.00 | 0.00 | 27 | 1007.6 |
| 20260510101008 | 70 | 341 | 0.0 | 0.0 | 0.00 | 0.00 | 0.00 | 27 | 1007.6 |
| 20260510100507 | 69 | 324 | 0.0 | 0.0 | 0.00 | 0.00 | 0.00 | 29 | 1007.5 |
| 20260510100007 | 70 | 324 | 0.0 | 0.0 | 0.00 | 0.00 | 0.00 | 29 | 1007.5 |
| 20260510095507 | 71 | 309 | 0.0 | 0.0 | 0.00 | 0.00 | 0.00 | 26 | 1007.5 |
| 20260510095006 | 72 | 30 | 0.0 | 3.0 | 0.00 | 0.00 | 0.00 | 26 | 1007.4 |
| 20260510094507 | 72 | 30 | 2.0 | 3.0 | 0.00 | 0.00 | 0.00 | 23 | 1007.4 |
| 20260510094007 | 72 | 20 | 0.0 | 0.0 | 0.00 | 0.00 | 0.00 | 26 | 1007.5 |
| 20260510093507 | 72 | 23 | 0.0 | 1.0 | 0.00 | 0.00 | 0.00 | 25 | 1007.4 |
| 20260510093007 | 72 | 23 | 0.0 | 2.0 | 0.00 | 0.00 | 0.00 | 26 | 1007.5 |
| 20260510092506 | 73 | 21 | 1.0 | 4.0 | 0.00 | 0.00 | 0.00 | 22 | 1007.5 |
| 20260510092006 | 73 | 39 | 0.0 | 4.0 | 0.00 | 0.00 | 0.00 | 23 | 1007.4 |
| 20260510091506 | 72 | 42 | 1.0 | 4.0 | 0.00 | 0.00 | 0.00 | 24 | 1007.4 |
| 20260510091006 | 73 | 34 | 0.0 | 0.0 | 0.00 | 0.00 | 0.00 | 23 | 1007.4 |
| 20260510090506 | 74 | 32 | 0.0 | 0.0 | 0.00 | 0.00 | 0.00 | 22 | 1007.5 |
| 20260510090006 | 74 | 35 | 0.0 | 1.0 | 0.00 | 0.00 | 0.00 | 20 | 1007.5 |
| 20260510085505 | 75 | 354 | 0.0 | 1.0 | 0.00 | 0.00 | 0.00 | 22 | 1007.4 |
| 20260510085005 | 76 | 152 | 0.0 | 0.0 | 0.00 | 0.00 | 0.00 | 19 | 1007.5 |
| 20260510084505 | 75 | 80 | 0.0 | 3.0 | 0.00 | 0.00 | 0.00 | 20 | 1007.5 |
| 20260510084006 | 74 | 79 | 0.0 | 3.0 | 0.00 | 0.00 | 0.00 | 21 | 1007.5 |
| 20260510083506 | 74 | 27 | 0.0 | 1.0 | 0.00 | 0.00 | 0.00 | 22 | 1007.5 |
| 20260510083005 | 74 | 69 | 0.0 | 4.0 | 0.00 | 0.00 | 0.00 | 21 | 1007.4 |
| 20260510082948 | 75 | 75 | 0.0 | 4.0 | 0.00 | 0.00 | 0.00 | 21 | 1007.4 |
| 20260510082005 | 75 | 90 | 0.0 | 3.0 | 0.00 | 0.00 | 0.00 | 20 | 1007.5 |
| 20260510081730 | 76 | 93 | 0.0 | 2.0 | 0.00 | 0.00 | 0.00 | 20 | 1007.5 |
| 20260510081223 | 78 | 99 | 0.0 | 0.0 | 0.00 | 0.00 | 0.00 | 18 | 1007.5 |
| 20260510080726 | 80 | 161 | 0.0 | 2.0 | 0.00 | 0.00 | 0.00 | 17 | 1007.5 |
| 20260510080005 | 82 | 161 | 0.0 | 4.0 | 0.00 | 0.00 | 0.00 | 15 | 1007.3 |
| 20260510075504 | 82 | 25 | 2.0 | 4.0 | 0.00 | 0.00 | 0.00 | 14 | 1007.3 |
| 20260510075004 | 82 | 16 | 1.0 | 5.0 | 0.00 | 0.00 | 0.00 | 14 | 1007.3 |
| 20260510074504 | 82 | 324 | 1.0 | 12.0 | 0.00 | 0.00 | 0.00 | 15 | 1007.5 |
| 20260510074004 | 81 | 39 | 4.0 | 12.0 | 0.00 | 0.00 | 0.00 | 15 | 1007.5 |
| 20260510073504 | 79 | 0 | 1.0 | 5.0 | 0.00 | 0.00 | 0.00 | 17 | 1007.5 |
| 20260510073227 | 78 | 327 | 0.0 | 0.0 | 0.00 | 0.00 | 0.00 | 20 | 1007.6 |
| 20260510072504 | 79 | 320 | 0.0 | 3.0 | 0.00 | 0.00 | 0.00 | 19 | 1007.7 |
| 20260510072004 | 81 | 320 | 1.0 | 5.0 | 0.00 | 0.00 | 0.00 | 16 | 1007.6 |
| 20260510071504 | 81 | 324 | 2.0 | 6.0 | 0.00 | 0.00 | 0.00 | 15 | 1007.5 |
| 20260510071004 | 82 | 309 | 3.0 | 13.0 | 0.00 | 0.00 | 0.00 | 15 | 1007.6 |
| 20260510070504 | 83 | 306 | 4.0 | 13.0 | 0.00 | 0.00 | 0.00 | 14 | 1007.6 |
| 20260510070002 | 83 | 293 | 4.0 | 13.0 | 0.00 | 0.00 | 0.00 | 14 | 1007.5 |
| 20260510065503 | 83 | 302 | 5.0 | 13.0 | 0.00 | 0.00 | 0.00 | 14 | 1007.5 |
| 20260510065003 | 82 | 312 | 5.0 | 12.0 | 0.00 | 0.00 | 0.00 | 14 | 1007.5 |
| 20260510064503 | 82 | 302 | 6.0 | 12.0 | 0.00 | 0.00 | 0.00 | 14 | 1007.5 |
| 20260510064450 | 82 | 320 | 5.0 | 11.0 | 0.00 | 0.00 | 0.00 | 14 | 1007.4 |
| 20260510063502 | 83 | 299 | 7.0 | 11.0 | 0.00 | 0.00 | 0.00 | 14 | 1007.3 |
| 20260510063002 | 83 | 299 | 4.0 | 11.0 | 0.00 | 0.00 | 0.00 | 14 | 1007.2 |
| 20260510062722 | 84 | 300 | 5.0 | 11.0 | 0.00 | 0.00 | 0.00 | 14 | 1007.2 |
| 20260510062003 | 84 | 268 | 2.0 | 9.0 | 0.00 | 0.00 | 0.00 | 13 | 1007.2 |
| 20260510061502 | 85 | 334 | 2.0 | 11.0 | 0.00 | 0.00 | 0.00 | 13 | 1007.0 |
| 20260510061002 | 85 | 344 | 5.0 | 11.0 | 0.00 | 0.00 | 0.00 | 13 | 1006.9 |
| 20260510060502 | 85 | 14 | 5.0 | 11.0 | 0.00 | 0.00 | 0.00 | 13 | 1006.8 |
| 20260510060002 | 85 | 6 | 4.0 | 11.0 | 0.00 | 0.00 | 0.00 | 13 | 1006.6 |
| 20260510055501 | 85 | 317 | 2.0 | 10.0 | 0.00 | 0.00 | 0.00 | 13 | 1006.6 |
| 20260510055002 | 85 | 341 | 5.0 | 10.0 | 0.00 | 0.00 | 0.00 | 13 | 1006.6 |
| 20260510054502 | 85 | 0 | 3.0 | 13.0 | 0.00 | 0.00 | 0.00 | 14 | 1006.4 |
| 20260510054002 | 86 | 39 | 4.0 | 13.0 | 0.00 | 0.00 | 0.00 | 13 | 1006.3 |
| 20260510053501 | 86 | 338 | 3.0 | 11.0 | 0.00 | 0.00 | 0.00 | 13 | 1006.3 |
| 20260510053001 | 86 | 34 | 5.0 | 11.0 | 0.00 | 0.00 | 0.00 | 13 | 1006.2 |
| 20260510052501 | 86 | 355 | 4.0 | 11.0 | 0.00 | 0.00 | 0.00 | 14 | 1006.2 |
| 20260510052000 | 86 | 336 | 5.0 | 12.0 | 0.00 | 0.00 | 0.00 | 13 | 1006.3 |
| 20260510051500 | 87 | 34 | 6.0 | 12.0 | 0.00 | 0.00 | 0.00 | 13 | 1006.3 |
| 20260510051000 | 87 | 20 | 4.0 | 12.0 | 0.00 | 0.00 | 0.00 | 12 | 1006.1 |
| 20260510050500 | 87 | 343 | 5.0 | 12.0 | 0.00 | 0.00 | 0.00 | 13 | 1006.1 |
| 20260510050001 | 87 | 35 | 6.0 | 14.0 | 0.00 | 0.00 | 0.00 | 13 | 1006.1 |
| 20260510045500 | 87 | 354 | 5.0 | 14.0 | 0.00 | 0.00 | 0.00 | 12 | 1006.1 |
| 20260510045000 | 87 | 337 | 6.0 | 12.0 | 0.00 | 0.00 | 0.00 | 13 | 1006.1 |
| 20260510044500 | 87 | 20 | 5.0 | 11.0 | 0.00 | 0.00 | 0.00 | 13 | 1006.0 |
| 20260510044000 | 87 | 350 | 5.0 | 11.0 | 0.00 | 0.00 | 0.00 | 13 | 1005.9 |
| 20260510043723 | 87 | 323 | 3.0 | 14.0 | 0.00 | 0.00 | 0.00 | 13 | 1005.9 |
| 20260510043000 | 87 | 38 | 6.0 | 14.0 | 0.00 | 0.00 | 0.00 | 12 | 1005.8 |
| 20260510042500 | 87 | 350 | 5.0 | 14.0 | 0.00 | 0.00 | 0.00 | 12 | 1005.8 |
| 20260510042441 | 87 | 27 | 6.0 | 14.0 | 0.00 | 0.00 | 0.00 | 12 | 1005.8 |
| 20260510041459 | 87 | 52 | 6.0 | 14.0 | 0.00 | 0.00 | 0.00 | 13 | 1005.8 |
| 20260510040959 | 87 | 10 | 4.0 | 13.0 | 0.00 | 0.00 | 0.00 | 12 | 1005.7 |
| 20260510040459 | 87 | 42 | 5.0 | 13.0 | 0.00 | 0.00 | 0.00 | 12 | 1005.6 |
| 20260510035959 | 87 | 6 | 6.0 | 11.0 | 0.00 | 0.00 | 0.00 | 12 | 1005.5 |
| 20260510035459 | 87 | 355 | 4.0 | 11.0 | 0.00 | 0.00 | 0.00 | 12 | 1005.5 |
| 20260510034959 | 87 | 35 | 6.0 | 11.0 | 0.00 | 0.00 | 0.00 | 12 | 1005.3 |
| 20260510034459 | 87 | 11 | 4.0 | 10.0 | 0.00 | 0.00 | 0.00 | 12 | 1005.3 |
| 20260510033958 | 87 | 55 | 5.0 | 11.0 | 0.00 | 0.00 | 0.00 | 12 | 1005.3 |
| 20260510033458 | 87 | 30 | 5.0 | 11.0 | 0.00 | 0.00 | 0.00 | 12 | 1005.2 |
| 20260510032958 | 87 | 34 | 3.0 | 10.0 | 0.00 | 0.00 | 0.00 | 13 | 1005.3 |
| 20260510032458 | 87 | 30 | 4.0 | 11.0 | 0.00 | 0.00 | 0.00 | 13 | 1005.2 |
| 20260510031958 | 87 | 42 | 4.0 | 11.0 | 0.00 | 0.00 | 0.00 | 13 | 1005.1 |
| 20260510031458 | 87 | 337 | 3.0 | 9.0 | 0.00 | 0.00 | 0.00 | 13 | 1005.0 |
| 20260510030958 | 86 | 23 | 5.0 | 9.0 | 0.00 | 0.00 | 0.00 | 13 | 1005.0 |
| 20260510030458 | 86 | 351 | 4.0 | 7.0 | 0.00 | 0.00 | 0.00 | 14 | 1004.9 |
| 20260510025957 | 86 | 347 | 2.0 | 7.0 | 0.00 | 0.00 | 0.00 | 14 | 1004.8 |
| 20260510025457 | 86 | 28 | 1.0 | 7.0 | 0.00 | 0.00 | 0.00 | 14 | 1004.8 |
| 20260510024957 | 86 | 18 | 1.0 | 4.0 | 0.00 | 0.00 | 0.00 | 13 | 1004.9 |
| 20260510024457 | 86 | 16 | 0.0 | 2.0 | 0.00 | 0.00 | 0.00 | 14 | 1004.8 |
| 20260510023957 | 86 | 24 | 0.0 | 4.0 | 0.00 | 0.00 | 0.00 | 13 | 1004.8 |
| 20260510023457 | 86 | 17 | 0.0 | 5.0 | 0.00 | 0.00 | 0.00 | 13 | 1004.8 |
| 20260510022957 | 86 | 23 | 2.0 | 5.0 | 0.00 | 0.00 | 0.00 | 14 | 1004.7 |
| 20260510022724 | 86 | 27 | 0.0 | 4.0 | 0.00 | 0.00 | 0.00 | 14 | 1004.7 |
| 20260510021956 | 87 | 25 | 0.0 | 0.0 | 0.00 | 0.00 | 0.00 | 14 | 1004.7 |
| 20260510021457 | 88 | 354 | 0.0 | 2.0 | 0.00 | 0.00 | 0.00 | 14 | 1004.6 |
| 20260510020957 | 88 | 334 | 0.0 | 2.0 | 0.00 | 0.00 | 0.00 | 12 | 1004.5 |
| 20260510020456 | 89 | 343 | 0.0 | 4.0 | 0.00 | 0.00 | 0.00 | 12 | 1004.5 |
| 20260510015956 | 90 | 319 | 1.0 | 4.0 | 0.00 | 0.00 | 0.00 | 12 | 1004.5 |
| 20260510015456 | 91 | 295 | 1.0 | 4.0 | 0.00 | 0.00 | 0.00 | 11 | 1004.5 |
| 20260510014956 | 91 | 326 | 2.0 | 10.0 | 0.00 | 0.00 | 0.00 | 11 | 1004.4 |
| 20260510014455 | 92 | 353 | 2.0 | 10.0 | 0.00 | 0.00 | 0.00 | 10 | 1004.4 |
| 20260510013955 | 92 | 278 | 4.0 | 6.0 | 0.00 | 0.00 | 0.00 | 10 | 1004.3 |
| 20260510013456 | 92 | 292 | 3.0 | 6.0 | 0.00 | 0.00 | 0.00 | 10 | 1004.4 |
| 20260510012956 | 92 | 286 | 3.0 | 6.0 | 0.00 | 0.00 | 0.00 | 10 | 1004.3 |
| 20260510012716 | 92 | 303 | 4.0 | 12.0 | 0.00 | 0.00 | 0.00 | 10 | 1004.4 |
| 20260510011955 | 93 | 20 | 4.0 | 12.0 | 0.00 | 0.00 | 0.00 | 10 | 1004.4 |
| 20260510011454 | 93 | 288 | 3.0 | 12.0 | 0.00 | 0.00 | 0.00 | 9 | 1004.4 |
| 20260510010955 | 93 | 276 | 5.0 | 9.0 | 0.00 | 0.00 | 0.00 | 9 | 1004.3 |
| 20260510010454 | 93 | 298 | 4.0 | 9.0 | 0.00 | 0.00 | 0.00 | 10 | 1004.3 |
| 20260510005954 | 94 | 264 | 4.0 | 9.0 | 0.00 | 0.00 | 0.00 | 9 | 1004.3 |
| 20260510005454 | 94 | 341 | 3.0 | 10.0 | 0.00 | 0.00 | 0.00 | 9 | 1004.3 |
| 20260510005438 | 94 | 296 | 1.0 | 11.0 | 0.00 | 0.00 | 0.00 | 9 | 1004.3 |
| 20260510004454 | 94 | 278 | 6.0 | 12.0 | 0.00 | 0.00 | 0.00 | 9 | 1004.3 |
| 20260510003954 | 94 | 319 | 6.0 | 12.0 | 0.00 | 0.00 | 0.00 | 9 | 1004.3 |
| 20260510003713 | 94 | 290 | 5.0 | 14.0 | 0.00 | 0.00 | 0.00 | 9 | 1004.4 |
| 20260510002954 | 94 | 265 | 7.0 | 14.0 | 0.00 | 0.00 | 0.00 | 9 | 1004.4 |
| 20260510002453 | 94 | 305 | 5.0 | 14.0 | 0.00 | 0.00 | 0.00 | 9 | 1004.4 |
| 20260510001953 | 95 | 278 | 7.0 | 14.0 | 0.00 | 0.00 | 0.00 | 9 | 1004.4 |
| 20260510001454 | 95 | 299 | 4.0 | 10.0 | 0.00 | 0.00 | 0.00 | 9 | 1004.4 |
| 20260510000954 | 95 | 288 | 3.0 | 13.0 | 0.00 | 0.00 | 0.00 | 8 | 1004.4 |
| 20260510000453 | 95 | 316 | 8.0 | 13.0 | 0.00 | 0.00 | 0.00 | 8 | 1004.5 |
| 20260509235954 | 95 | 259 | 3.0 | 10.0 | 0.00 | 0.00 | 0.00 | 9 | 1004.5 |
| 20260509235453 | 95 | 343 | 5.0 | 11.0 | 0.00 | 0.00 | 0.00 | 9 | 1004.5 |
| 20260509234953 | 96 | 310 | 5.0 | 11.0 | 0.00 | 0.00 | 0.00 | 8 | 1004.5 |
| 20260509234453 | 96 | 302 | 3.0 | 7.0 | 0.00 | 0.00 | 0.00 | 9 | 1004.5 |
| 20260509233953 | 95 | 316 | 2.0 | 9.0 | 0.00 | 0.00 | 0.00 | 9 | 1004.6 |
| 20260509233453 | 95 | 30 | 3.0 | 14.0 | 0.00 | 0.00 | 0.00 | 9 | 1004.6 |
| 20260509232953 | 96 | 286 | 6.0 | 14.0 | 0.00 | 0.00 | 0.00 | 9 | 1004.6 |
| 20260509232715 | 96 | 298 | 8.0 | 14.0 | 0.00 | 0.00 | 0.00 | 9 | 1004.6 |
| 20260509232211 | 95 | 4 | 3.0 | 11.0 | 0.00 | 0.00 | 0.00 | 9 | 1004.7 |
| 20260509231453 | 96 | 306 | 3.0 | 6.0 | 0.00 | 0.00 | 0.00 | 9 | 1004.8 |
| 20260509230953 | 96 | 272 | 0.0 | 10.0 | 0.00 | 0.00 | 0.00 | 8 | 1004.7 |
| 20260509230452 | 96 | 271 | 1.0 | 14.0 | 0.00 | 0.00 | 0.00 | 9 | 1004.9 |
| 20260509225952 | 95 | 223 | 7.0 | 14.0 | 0.00 | 0.00 | 0.00 | 9 | 1004.9 |
| 20260509225452 | 96 | 292 | 5.0 | 13.0 | 0.00 | 0.00 | 0.00 | 9 | 1004.9 |
| 20260509225433 | 96 | 292 | 5.0 | 16.0 | 0.00 | 0.00 | 0.00 | 8 | 1005.0 |
| 20260509224452 | 96 | 207 | 2.0 | 16.0 | 0.00 | 0.00 | 0.00 | 9 | 1005.0 |
| 20260509223952 | 96 | 168 | 2.0 | 11.0 | 0.00 | 0.00 | 0.00 | 9 | 1005.0 |
| 20260509223451 | 96 | 296 | 5.0 | 15.0 | 0.00 | 0.00 | 0.00 | 9 | 1005.1 |
| 20260509222951 | 96 | 337 | 6.0 | 15.0 | 0.00 | 0.00 | 0.00 | 10 | 1005.2 |
| 20260509222451 | 97 | 302 | 4.0 | 10.0 | 0.00 | 0.00 | 0.00 | 10 | 1005.1 |
| 20260509221951 | 96 | 313 | 5.0 | 17.0 | 0.00 | 0.00 | 0.00 | 9 | 1005.3 |
| 20260509221451 | 96 | 282 | 7.0 | 17.0 | 0.00 | 0.00 | 0.00 | 9 | 1005.3 |
| 20260509220952 | 96 | 295 | 7.0 | 14.0 | 0.00 | 0.00 | 0.00 | 9 | 1005.3 |
| 20260509220451 | 96 | 247 | 5.0 | 13.0 | 0.00 | 0.00 | 0.00 | 9 | 1005.3 |
| 20260509215950 | 96 | 298 | 6.0 | 13.0 | 0.00 | 0.00 | 0.00 | 9 | 1005.5 |
| 20260509215450 | 96 | 296 | 4.0 | 13.0 | 0.00 | 0.00 | 0.00 | 10 | 1005.6 |
| 20260509214950 | 96 | 274 | 5.0 | 13.0 | 0.00 | 0.00 | 0.00 | 10 | 1005.6 |
| 20260509214450 | 96 | 228 | 4.0 | 12.0 | 0.00 | 0.00 | 0.00 | 9 | 1005.7 |
| 20260509213950 | 96 | 279 | 4.0 | 14.0 | 0.00 | 0.00 | 0.00 | 10 | 1005.8 |
| 20260509213450 | 96 | 313 | 7.0 | 14.0 | 0.00 | 0.00 | 0.00 | 11 | 1005.8 |
| 20260509212949 | 96 | 279 | 5.0 | 14.0 | 0.00 | 0.00 | 0.00 | 10 | 1005.9 |
| 20260509212449 | 96 | 279 | 8.0 | 14.0 | 0.00 | 0.00 | 0.00 | 10 | 1006.0 |
| 20260509211949 | 98 | 271 | 3.0 | 11.0 | 0.00 | 0.00 | 0.00 | 10 | 1006.0 |
| 20260509211450 | 97 | 274 | 4.0 | 13.0 | 0.00 | 0.00 | 0.00 | 10 | 1006.0 |
| 20260509210950 | 96 | 241 | 3.0 | 13.0 | 0.00 | 0.00 | 0.00 | 10 | 1006.1 |
| 20260509210450 | 96 | 257 | 1.0 | 12.0 | 0.00 | 0.00 | 0.00 | 11 | 1006.2 |
| 20260509205949 | 96 | 274 | 4.0 | 12.0 | 0.00 | 0.00 | 0.00 | 10 | 1006.2 |
| 20260509205449 | 96 | 290 | 5.0 | 12.0 | 0.00 | 0.00 | 0.00 | 10 | 1006.3 |
| 20260509204949 | 96 | 258 | 6.0 | 13.0 | 0.00 | 0.00 | 0.00 | 10 | 1006.4 |
| 20260509204449 | 96 | 269 | 5.0 | 13.0 | 0.00 | 0.00 | 0.00 | 10 | 1006.4 |
| 20260509203949 | 96 | 293 | 6.0 | 13.0 | 0.00 | 0.00 | 0.00 | 11 | 1006.5 |
| 20260509203448 | 96 | 227 | 4.0 | 14.0 | 0.00 | 0.00 | 0.00 | 11 | 1006.5 |
| 20260509202949 | 95 | 303 | 7.0 | 14.0 | 0.00 | 0.00 | 0.00 | 11 | 1006.6 |
| 20260509202449 | 94 | 237 | 6.0 | 14.0 | 0.00 | 0.00 | 0.00 | 11 | 1006.8 |
| 20260509201949 | 94 | 295 | 5.0 | 14.0 | 0.00 | 0.00 | 0.00 | 12 | 1007.0 |
| 20260509201448 | 94 | 289 | 6.0 | 13.0 | 0.00 | 0.00 | 0.00 | 12 | 1007.0 |
| 20260509200947 | 95 | 289 | 7.0 | 13.0 | 0.00 | 0.00 | 0.00 | 11 | 1007.0 |
| 20260509200448 | 95 | 290 | 5.0 | 15.0 | 0.00 | 0.00 | 0.00 | 11 | 1007.1 |
| 20260509195948 | 95 | 288 | 7.0 | 16.0 | 0.00 | 0.00 | 0.00 | 12 | 1007.1 |
| 20260509195448 | 96 | 299 | 6.0 | 16.0 | 0.00 | 0.00 | 0.00 | 12 | 1007.1 |
| 20260509195206 | 96 | 257 | 5.0 | 13.0 | 0.00 | 0.00 | 0.00 | 11 | 1007.1 |